This is the latest recevied weather packets stored in our database for station/object K7FLA. If no packets are shown the sender has not sent any weather packets the latest 10 day(s).
| Time | Temp. | Humidity | Pressure | Rain* | Wind** | Luminosity | Snow |
|---|---|---|---|---|---|---|---|
| 1777430145 | 17.22° C | 46% | 1096.7 hPa | 0 mm | - | 2 W/m² | - |
| 1777429840 | 17.22° C | 47% | 1096.5 hPa | 0 mm | - | 3 W/m² | - |
| 1777429537 | 17.22° C | 45% | 1096.6 hPa | 0 mm | - | 5 W/m² | - |
| 1777429233 | 17.78° C | 45% | 1096.5 hPa | 0 mm | - | 8 W/m² | - |
| 1777428929 | 17.78° C | 44% | 1096.4 hPa | 0 mm | - | 11 W/m² | - |
| 1777428625 | 18.33° C | 43% | 1096.4 hPa | 0 mm | - | 15 W/m² | - |
| 1777428321 | 18.33° C | 41% | 1096.1 hPa | 0 mm | - | 19 W/m² | - |
| 1777428016 | 18.89° C | 40% | 1096.3 hPa | 0 mm | - | 23 W/m² | - |
| 1777427713 | 18.89° C | 39% | 1096.1 hPa | 0 mm | - | 26 W/m² | - |
| 1777427410 | 19.44° C | 36% | 1095.9 hPa | 0 mm | - | 30 W/m² | - |
| 1777427106 | 19.44° C | 35% | 1095.9 hPa | 0 mm | - | 33 W/m² | - |
| 1777426804 | 20° C | 34% | 1096.2 hPa | 0 mm | - | 39 W/m² | - |
| 1777426500 | 20° C | 33% | 1096 hPa | 0 mm | - | 42 W/m² | - |
| 1777426196 | 20.56° C | 32% | 1095.9 hPa | 0 mm | - | 46 W/m² | - |
| 1777425891 | 20.56° C | 31% | 1095.7 hPa | 0 mm | - | 48 W/m² | - |
| 1777425587 | 20.56° C | 29% | 1095.9 hPa | 0 mm | - | 53 W/m² | - |
| 1777425283 | 20.56° C | 27% | 1095.9 hPa | 0 mm | - | 70 W/m² | - |
| 1777424980 | 20.56° C | 27% | 1095.9 hPa | 0 mm | - | 70 W/m² | - |
| 1777424676 | 20.56° C | 26% | 1096 hPa | 0 mm | - | 82 W/m² | - |
| 1777424370 | 21.11° C | 25% | 1095.7 hPa | 0 mm | - | 103 W/m² | - |
| 1777424066 | 21.11° C | 25% | 1095.7 hPa | 0 mm | - | 111 W/m² | - |
| 1777423764 | 21.11° C | 24% | 1096 hPa | 0 mm | - | 129 W/m² | - |
| 1777423460 | 21.67° C | 25% | 1095.7 hPa | 0 mm | - | 137 W/m² | - |
| 1777423155 | 21.67° C | 23% | 1095.6 hPa | 0 mm | - | 155 W/m² | - |
| 1777422849 | 21.67° C | 24% | 1095.7 hPa | 0 mm | - | 173 W/m² | - |
* Rain latest hour (hover to see other rain measurements)
** Current wind speed in m/s (hover to see current wind gust speed)